Weather History for KC29 - September, 2012

Change the Weather History Date:

Saturday, September 8, 2012

  Actual Average (KMSN) Record (KMSN)
Temperature  
Mean Temperature 60 °F 64 °F  
Max Temperature 73 °F 75 °F 97 °F (1978)
Min Temperature 48 °F 54 °F 37 °F (1986)
Degree Days  
Heating Degree Days 5 3  
Month to date heating degree days 20  
Since 1 July heating degree days 57  
Cooling Degree Days 0 3  
Month to date cooling degree days 24  
Year to date cooling degree days 537  
Growing Degree Days 10 (Base 50)    
Moisture  
Dew Point 47 °F    
Average Humidity 68    
Maximum Humidity 95    
Minimum Humidity 34    
Precipitation  
Precipitation 0.13 in 0.12 in 2.79 in (1941)
Month to date precipitation 0.91  
Year to date precipitation 25.73  
Snow  
Snow 0.00 in 0.00 in 0.00 in ()
Month to date snowfall 0.0  
Since 1 July snowfall 0.0  
Since 1 September snowfall 0.0  
Snow Depth -    
Sea Level Pressure  
Sea Level Pressure 29.90 in    
Wind  
Wind Speed 8 mph (WNW)    
Max Wind Speed 30 mph    
Max Gust Speed 38 mph    
Visibility 10 miles    
Events      
T = Trace of Precipitation, MM = Missing Value Source: NWS Daily Summary

Daily Weather History Graph

Daily Weather History Graph

Search for Another Location

Airport or City:

Trip Planner

Search our weather history database for the weather conditions in past years. The results will help you decide how hot, cold, wet, or windy it might be!

Date:

Astronomy

Sep. 08, 2012 Rise Set
Actual Time 6:30 AM CDT 7:19 PM CDT
Civil Twilight 6:01 AM CDT 7:48 PM CDT
Nautical Twilight 5:27 AM CDT 8:22 PM CDT
Astronomical Twilight 4:51 AM CDT 8:58 PM CDT
Moon 11:53 PM CDT (9/8) 2:23 PM CDT (9/8)
Length of Visible Light 13h 46m
Length of Day
12h 49m
Waning Gibbous, 48% of the Moon is Illuminated
Sep 8
Waning Gibbous
Sep 15
New
Sep 22
First Quarter
Sep 29
Full
Oct 8
Last Quarter

Hourly Weather History & Observations

Time (CDT) Temp. Dew Point Humidity Pressure Visibility Wind Dir Wind Speed Gust Speed Precip Events Conditions
12:35 AM 53.6 °F 46.8 °F 78% 29.93 in 10.0 mi NW 5.8 mph - N/A   Clear
12:55 AM 54.0 °F 46.6 °F 76% 29.93 in 10.0 mi NW 5.8 mph - N/A   Clear
1:15 AM 53.8 °F 46.4 °F 76% 29.93 in 10.0 mi NW 5.8 mph - N/A   Clear
1:35 AM 52.5 °F 46.8 °F 81% 29.93 in 10.0 mi NW 5.8 mph - N/A   Clear
1:55 AM 52.5 °F 46.8 °F 81% 29.93 in 10.0 mi NW 5.8 mph - N/A   Clear
2:15 AM 52.0 °F 46.9 °F 83% 29.93 in 10.0 mi NW 5.8 mph - N/A   Clear
2:35 AM 52.3 °F 47.1 °F 82% 29.93 in 10.0 mi NW 4.6 mph - N/A   Clear
2:55 AM 51.1 °F 46.6 °F 85% 29.93 in 10.0 mi WNW 4.6 mph - N/A   Clear
3:15 AM 51.8 °F 47.5 °F 85% 29.93 in 10.0 mi WNW 6.9 mph - N/A   Clear
3:35 AM 50.7 °F 46.9 °F 87% 29.93 in 10.0 mi West 4.6 mph - N/A   Clear
4:15 AM 50.2 °F 47.5 °F 90% 29.93 in 10.0 mi WNW 6.9 mph - N/A   Clear
4:35 AM 50.0 °F 47.3 °F 90% 29.93 in 10.0 mi WNW 4.6 mph - N/A   Clear
4:55 AM 50.0 °F 47.1 °F 90% 29.93 in 10.0 mi West 4.6 mph - N/A   Clear
5:15 AM 49.8 °F 47.3 °F 91% 29.93 in 10.0 mi Calm Calm - N/A   Clear
5:35 AM 48.0 °F 45.7 °F 92% 29.93 in 10.0 mi West 5.8 mph - N/A   Clear
5:55 AM 48.7 °F 46.8 °F 93% 29.93 in 10.0 mi WNW 8.1 mph - N/A   Clear
6:15 AM 49.3 °F 46.9 °F 92% 29.94 in 10.0 mi West 6.9 mph - N/A   Clear
6:35 AM 50.0 °F 47.3 °F 90% 29.93 in 10.0 mi WNW 5.8 mph - N/A   Clear
6:55 AM 49.6 °F 47.3 °F 92% 29.94 in 10.0 mi WNW 6.9 mph - N/A   Clear
7:15 AM 50.9 °F 48.2 °F 90% 29.94 in 10.0 mi WNW 10.4 mph - N/A   Clear
7:35 AM 52.2 °F 48.6 °F 88% 29.94 in 10.0 mi WNW 9.2 mph - N/A   Clear
7:55 AM 53.2 °F 48.7 °F 85% 29.95 in 10.0 mi WNW 11.5 mph 16.1 mph N/A   Clear
8:15 AM 54.3 °F 49.1 °F 83% 29.94 in 10.0 mi WNW 10.4 mph - N/A   Clear
8:35 AM 55.4 °F 48.7 °F 78% 29.95 in 10.0 mi NW 12.7 mph 16.1 mph N/A   Clear
8:55 AM 56.5 °F 48.2 °F 74% 29.94 in 10.0 mi NW 10.4 mph - N/A   Clear
9:15 AM 57.7 °F 48.6 °F 71% 29.94 in 10.0 mi WNW 12.7 mph - N/A   Clear
9:35 AM 59.2 °F 48.7 °F 68% 29.94 in 10.0 mi NW 10.4 mph - N/A   Clear
9:55 AM 60.6 °F 47.8 °F 63% 29.94 in 10.0 mi NW 13.8 mph 17.3 mph N/A   Clear
10:15 AM 61.5 °F 47.3 °F 60% 29.93 in 10.0 mi NW 9.2 mph 17.3 mph N/A   Clear
10:35 AM 62.6 °F 46.6 °F 56% 29.93 in 10.0 mi WNW 16.1 mph 23.0 mph N/A   Clear
10:55 AM 63.0 °F 45.7 °F 53% 29.92 in 10.0 mi NW 11.5 mph 24.2 mph N/A   Scattered Clouds
11:15 AM 64.4 °F 46.4 °F 52% 29.92 in 10.0 mi NW 15.0 mph 20.7 mph N/A   Scattered Clouds
11:35 AM 66.2 °F 45.3 °F 47% 29.91 in 10.0 mi NW 15.0 mph 19.6 mph N/A   Scattered Clouds
11:55 AM 66.7 °F 44.8 °F 45% 29.92 in 10.0 mi NNW 15.0 mph 20.7 mph N/A   Clear
12:15 PM 67.6 °F 45.5 °F 45% 29.91 in 10.0 mi NW 16.1 mph 23.0 mph N/A   Scattered Clouds
12:35 PM 68.2 °F 45.3 °F 44% 29.91 in 10.0 mi WNW 10.4 mph 18.4 mph N/A   Scattered Clouds
12:55 PM 68.5 °F 44.6 °F 42% 29.91 in 10.0 mi WNW 9.2 mph 19.6 mph N/A   Scattered Clouds
1:15 PM 69.4 °F 45.5 °F 42% 29.90 in 10.0 mi WNW 18.4 mph 21.9 mph N/A   Scattered Clouds
1:35 PM 70.0 °F 44.8 °F 40% 29.90 in 10.0 mi WNW 12.7 mph - N/A   Mostly Cloudy
1:55 PM 70.7 °F 45.0 °F 40% 29.89 in 10.0 mi West 17.3 mph 23.0 mph N/A   Mostly Cloudy
2:15 PM 69.4 °F 44.6 °F 41% 29.88 in 10.0 mi WNW 13.8 mph 24.2 mph N/A   Mostly Cloudy
2:35 PM 71.2 °F 44.4 °F 38% 29.87 in 10.0 mi West 15.0 mph 24.2 mph N/A   Mostly Cloudy
3:15 PM 71.6 °F 42.4 °F 35% 29.86 in 10.0 mi WNW 18.4 mph 25.3 mph N/A   Mostly Cloudy
3:35 PM 72.5 °F 43.5 °F 35% 29.86 in 10.0 mi WNW 12.7 mph - N/A   Mostly Cloudy
3:55 PM 72.5 °F 42.6 °F 34% 29.85 in 10.0 mi West 10.4 mph 28.8 mph N/A   Mostly Cloudy
4:15 PM 72.0 °F 43.0 °F 35% 29.84 in 10.0 mi WNW 16.1 mph 21.9 mph N/A   Scattered Clouds
4:35 PM 72.3 °F 42.8 °F 35% 29.83 in 10.0 mi West 10.4 mph 16.1 mph N/A   Clear
4:55 PM 72.0 °F 42.6 °F 35% 29.83 in 10.0 mi WNW 15.0 mph 20.7 mph N/A   Scattered Clouds
5:15 PM 70.7 °F 43.5 °F 37% 29.83 in 10.0 mi West 13.8 mph 18.4 mph N/A   Scattered Clouds
5:35 PM 70.7 °F 43.2 °F 37% 29.82 in 10.0 mi WSW 13.8 mph 19.6 mph N/A   Mostly Cloudy
5:55 PM 71.6 °F 43.9 °F 37% 29.82 in 10.0 mi WSW 8.1 mph - N/A   Mostly Cloudy
6:15 PM 71.4 °F 43.2 °F 36% 29.81 in 10.0 mi SW 6.9 mph - N/A   Mostly Cloudy
6:35 PM 69.4 °F 43.2 °F 39% 29.79 in 10.0 mi SSW 4.6 mph - N/A   Scattered Clouds
6:55 PM 69.4 °F 43.5 °F 39% 29.76 in 10.0 mi SSW 5.8 mph - N/A   Scattered Clouds
7:15 PM 68.2 °F 46.0 °F 45% 29.74 in 10.0 mi South 6.9 mph - N/A   Overcast
7:35 PM 61.2 °F 49.6 °F 66% 29.81 in 5.0 mi North 29.9 mph 38.0 mph 0.04 in   Overcast
7:55 PM 58.3 °F 52.7 °F 82% 29.86 in 7.0 mi North 11.5 mph 20.7 mph 0.10 in   Overcast
8:15 PM 57.4 °F 54.5 °F 90% 29.86 in 10.0 mi North 4.6 mph - 0.03 in   Overcast
8:35 PM 57.2 °F 54.7 °F 91% 29.84 in 10.0 mi East 6.9 mph - 0.03 in   Overcast
8:55 PM 57.2 °F 54.7 °F 91% 29.86 in 10.0 mi NE 4.6 mph - 0.03 in   Overcast
9:15 PM 56.3 °F 54.1 °F 92% 29.86 in 10.0 mi Calm Calm - N/A   Scattered Clouds
9:35 PM 55.8 °F 53.8 °F 93% 29.87 in 10.0 mi Calm Calm - N/A   Scattered Clouds
10:15 PM 52.5 °F 50.9 °F 94% 29.89 in 10.0 mi WNW 4.6 mph - N/A   Clear
10:35 PM 54.3 °F 52.9 °F 95% 29.90 in 10.0 mi NW 4.6 mph - N/A   Clear
10:55 PM 54.5 °F 52.9 °F 94% 29.91 in 10.0 mi Calm Calm - N/A   Clear
11:15 PM 53.8 °F 52.3 °F 95% 29.91 in 10.0 mi Calm Calm - N/A   Scattered Clouds
11:55 PM 55.0 °F 52.3 °F 91% 29.92 in 10.0 mi NNW 5.8 mph - N/A   Scattered Clouds